[[{"header":{"parameterUnit":"m.s-1","parameterCategory":1,"la1":30.2991,"la2":30.254,"lo1":-89.0895,"lo2":-89.0444,"dy":0.0017,"dx":0.0017,"nx":28,"ny":28,"refTime":"2024-08-05T21:00:00:Z","depth":0,"parameterNumber":2,"parameterNumberName":"U-component_of_WINDS"},"data":[0,0,0,0,0,0,0,0,0,0,0,0,0,0,0,0,0,0,0,0,0,0,0,0,0,0,0,0,0,0,0,0,0,0,0,0,0,0,0,0,0,0,0,0,0,0,0,0,0,0,0,0,0,0,0,0,0,0,-0.2465,-0.2465,0,-0.24,-0.24,-0.2399,-0.2352,-0.2351,-0.2351,-0.235,-0.2284,-0.2282,-0.2281,0,0,0,0,0,0,0,0,0,0,0,0,0,-0.2548,-0.2547,-0.2466,-0.2465,-0.2464,-0.24,-0.24,-0.2399,-0.2352,-0.2351,-0.2351,-0.235,-0.2284,-0.2283,-0.2281,0,0,0,0,0,0,0,0,0,0,0,0,0,-0.2501,-0.2547,-0.2466,-0.2433,-0.2429,-0.2401,-0.24,-0.2398,-0.2352,-0.2351,-0.2351,-0.235,-0.2285,-0.2283,-0.2281,-0.2279,0,0,-0.2274,-0.2273,0,0,0,0,0,0,0,0,-0.2504,-0.2498,-0.2438,-0.2435,-0.2431,-0.2383,-0.2404,-0.2359,-0.2352,-0.2381,-0.235,-0.235,-0.2317,-0.2313,-0.2302,-0.2276,-0.2273,-0.2274,-0.2273,-0.2272,-0.2271,0,0,0,0,0,0,0,-0.2507,-0.25,-0.244,-0.2438,-0.2433,-0.2421,-0.2414,-0.2395,-0.2353,-0.2379,-0.2375,-0.2368,-0.2315,-0.2304,-0.23,-0.2272,-0.2274,-0.2272,-0.2271,-0.227,-0.2242,-0.2243,0,0,0,0,0,0,-0.2515,-0.2503,-0.2442,-0.2438,-0.2467,-0.242,-0.2412,-0.2399,-0.2353,-0.2346,-0.2369,-0.2366,-0.2308,-0.2302,-0.2297,-0.2293,-0.2272,-0.227,-0.2269,-0.2242,-0.2242,-0.2243,0,0,0,0,0,0,-0.2517,-0.251,-0.2444,-0.247,-0.246,-0.2419,-0.2406,-0.2398,-0.2387,-0.2346,-0.2338,-0.2365,-0.2307,-0.23,-0.2284,-0.229,-0.2269,-0.2267,-0.2241,-0.2242,-0.2243,-0.2284,0,0,0,0,0,0,-0.252,-0.2511,-0.2511,-0.247,-0.2459,-0.2433,-0.2406,-0.2398,-0.2383,-0.2379,-0.234,-0.2333,-0.2306,-0.2288,-0.2282,-0.2287,-0.2265,-0.224,-0.2242,-0.2242,-0.2282,-0.2286,-0.229,0,0,0,0,0,-0.2523,-0.2525,-0.2511,-0.2504,-0.2458,-0.2433,-0.2427,-0.2396,-0.2384,-0.2383,-0.2356,-0.2334,-0.229,-0.2286,-0.228,-0.2284,-0.224,-0.2241,-0.2242,-0.2281,-0.2286,-0.229,0,0,0,0,0,0,-0.2568,-0.2519,-0.2503,-0.2492,-0.2467,-0.2425,-0.2423,-0.2402,-0.238,-0.2378,-0.234,-0.2331,-0.2319,-0.2299,-0.2296,-0.228,-0.2262,-0.2262,-0.2293,-0.2298,-0.2302,-0.2307,-0.2264,0,0,0,0,0,-0.2577,-0.2561,-0.2519,-0.2513,-0.2502,-0.2465,-0.2453,-0.2431,-0.2404,-0.2393,-0.2365,-0.234,-0.232,-0.2307,-0.2287,-0.2279,-0.2269,-0.2278,-0.2282,-0.2285,-0.2286,-0.228,-0.2284,-0.2247,-0.2247,-0.2247,0,0,-0.2594,-0.2566,-0.2558,-0.2522,-0.25,-0.2485,-0.2456,-0.2441,-0.2429,-0.2391,-0.2374,-0.2353,-0.2321,-0.2309,-0.2302,-0.2292,-0.2294,-0.2287,-0.229,-0.2289,-0.2282,-0.2285,-0.2288,-0.2248,-0.2248,-0.2247,0,0,-0.2619,-0.2596,-0.2588,-0.2567,-0.2534,-0.2509,-0.2507,-0.2468,-0.2453,-0.2435,-0.2406,-0.2391,-0.2357,-0.2336,-0.2321,-0.2337,-0.2316,-0.2331,-0.2352,-0.2346,-0.2349,-0.2351,-0.2357,-0.236,-0.2331,-0.2332,-0.2332,0,-0.2645,-0.2621,-0.2587,-0.2574,-0.2559,-0.2522,-0.2514,-0.2495,-0.2457,-0.2448,-0.2437,-0.2394,-0.237,-0.2352,-0.2356,-0.2345,-0.2342,-0.2336,-0.2351,-0.2353,-0.2355,-0.236,-0.2363,-0.2334,-0.2333,-0.2333,-0.2333,0,-0.2655,-0.2639,-0.2637,-0.2601,-0.2586,-0.2575,-0.2539,-0.2527,-0.2506,-0.2482,-0.2465,-0.2435,-0.2408,-0.2401,-0.2381,-0.2381,-0.2376,-0.2359,-0.234,-0.2361,-0.2366,-0.2367,-0.2337,-0.2336,-0.2335,-0.2335,0,0,-0.2708,-0.2653,-0.2653,-0.2636,-0.2597,-0.2583,-0.2571,-0.2544,-0.2534,-0.2509,-0.2498,-0.247,-0.2453,-0.2436,-0.2413,-0.2408,-0.2422,-0.2391,-0.239,-0.2399,-0.2421,-0.2434,-0.2437,-0.2407,-0.2408,-0.2408,-0.2423,0,-0.2727,-0.2703,-0.2672,-0.2658,-0.2643,-0.2607,-0.2596,-0.2571,-0.2548,-0.2531,-0.2505,-0.2486,-0.2466,-0.2456,-0.2449,-0.2422,-0.2426,-0.242,-0.2397,-0.2397,-0.2407,-0.2439,-0.2454,-0.247,-0.2425,-0.2425,-0.2425,0,-0.2747,-0.2723,-0.2709,-0.267,-0.2662,-0.2653,-0.2626,-0.261,-0.258,-0.2563,-0.2544,-0.2518,-0.2503,-0.2485,-0.2464,-0.246,-0.2448,-0.2434,-0.2433,-0.2431,-0.2413,-0.2439,-0.2475,-0.2478,-0.2427,-0.2427,-0.2427,0,-0.2788,-0.2752,-0.2739,-0.2725,-0.268,-0.2674,-0.2655,-0.2624,-0.261,-0.2585,-0.2576,-0.255,-0.2536,-0.2516,-0.2484,-0.2475,-0.2466,-0.2446,-0.2452,-0.2453,-0.2453,-0.2454,-0.2489,-0.2444,-0.2444,-0.2444,-0.2444,0,-0.2813,-0.2806,-0.2756,-0.2748,-0.2738,-0.2702,-0.2693,-0.267,-0.2643,-0.263,-0.2597,-0.2585,-0.2543,-0.2526,-0.25,-0.2486,-0.248,-0.2466,-0.246,-0.247,-0.2472,-0.2463,-0.2461,-0.2445,-0.2445,-0.2444,-0.2444,0,-0.2858,-0.2824,-0.2807,-0.2765,-0.2754,-0.2749,-0.2713,-0.2703,-0.2678,-0.2661,-0.2655,-0.2615,-0.2594,-0.2559,-0.2527,-0.251,-0.2501,-0.2489,-0.2511,-0.2507,-0.2516,-0.2516,-0.2547,-0.2549,-0.2503,-0.2503,-0.2503,0,-0.2877,-0.287,-0.2827,-0.2816,-0.2798,-0.278,-0.2765,-0.2728,-0.2714,-0.2678,-0.2673,-0.2649,-0.2627,-0.2594,-0.2562,-0.2537,-0.2525,-0.2538,-0.2522,-0.2532,-0.2527,-0.2528,-0.2527,-0.2542,-0.2543,-0.2544,-0.2544,0,-0.2914,-0.2898,-0.2878,-0.2852,-0.2835,-0.2813,-0.2789,-0.2781,-0.2739,-0.2724,-0.2701,-0.2685,-0.2652,-0.2628,-0.2599,-0.2578,-0.2554,-0.2549,-0.2549,-0.256,-0.2574,-0.2567,-0.2523,-0.2549,-0.2549,-0.2548,-0.2548,-0.2548,-0.2947,-0.294,-0.2908,-0.2887,-0.2865,-0.2843,-0.2832,-0.2805,-0.2785,-0.2756,-0.2734,-0.2713,-0.2682,-0.264,-0.2621,-0.2603,-0.2593,-0.2593,-0.2593,-0.2594,-0.2598,-0.2575,-0.2598,-0.2597,-0.2597,-0.2597,-0.2597,0,-0.2984,-0.2962,-0.2942,-0.291,-0.2893,-0.2871,-0.2843,-0.283,-0.2812,-0.2785,-0.2764,-0.2738,-0.2714,-0.268,-0.2654,-0.2646,-0.2635,-0.2641,-0.2641,-0.2637,-0.2609,-0.2612,-0.265,-0.265,-0.265,-0.265,-0.265,-0.265,-0.3001,-0.2987,-0.2967,-0.2941,-0.2919,-0.2898,-0.2884,-0.2863,-0.2842,-0.2814,-0.2794,-0.2772,-0.2742,-0.2713,-0.269,-0.268,-0.2673,-0.2682,-0.267,-0.2644,-0.2639,-0.2635,-0.2637,-0.2681,-0.2681,-0.2699,-0.27,-0.27]},{"header":{"parameterUnit":"m.s-1","parameterCategory":1,"la1":30.2991,"la2":30.254,"lo1":-89.0895,"lo2":-89.0444,"dy":0.0017,"dx":0.0017,"nx":28,"ny":28,"refTime":"2024-08-05T21:00:00:Z","depth":0,"parameterNumber":3,"parameterNumberName":"V-component_of_WINDS"},"data":[0,0,0,0,0,0,0,0,0,0,0,0,0,0,0,0,0,0,0,0,0,0,0,0,0,0,0,0,0,0,0,0,0,0,0,0,0,0,0,0,0,0,0,0,0,0,0,0,0,0,0,0,0,0,0,0,0,0,-2.9799,-2.98,0,-2.9907,-2.9908,-2.991,-2.9923,-2.9922,-2.9921,-2.992,-3.0028,-3.0032,-3.0036,0,0,0,0,0,0,0,0,0,0,0,0,0,-2.9602,-2.9606,-2.9799,-2.98,-2.9802,-2.9907,-2.9908,-2.991,-2.9923,-2.9922,-2.992,-2.9919,-3.0027,-3.0031,-3.0036,0,0,0,0,0,0,0,0,0,0,0,0,0,-2.9697,-2.9607,-2.9799,-2.9821,-2.9824,-2.9907,-2.9908,-2.991,-2.9923,-2.9921,-2.992,-2.9918,-3.0025,-3.0031,-3.0037,-3.0104,0,0,-3.0054,-3.0057,0,0,0,0,0,0,0,0,-2.9691,-2.9704,-2.9816,-2.9819,-2.9823,-2.99,-2.9879,-2.9975,-2.9923,-2.9885,-2.9919,-2.9918,-2.9987,-2.9995,-3.0019,-3.0109,-3.0114,-3.0055,-3.0058,-3.0061,-3.0063,0,0,0,0,0,0,0,-2.9685,-2.9699,-2.9842,-2.9818,-2.9822,-2.9825,-2.9837,-2.9897,-2.9943,-2.9889,-2.989,-2.9903,-2.9988,-3.0013,-3.0022,-3.0115,-3.0055,-3.006,-3.0063,-3.0066,-3.0268,-3.0269,0,0,0,0,0,0,-2.9674,-2.9694,-2.9838,-2.9845,-2.9752,-2.983,-2.9843,-2.9877,-2.9943,-2.9951,-2.9904,-2.9903,-3.0004,-3.0015,-3.0026,-3.011,-3.0061,-3.0066,-3.007,-3.0266,-3.0268,-3.027,0,0,0,0,0,0,-2.967,-2.9687,-2.9834,-2.977,-2.9789,-2.9835,-2.9873,-2.988,-2.9905,-2.9954,-2.9962,-2.9921,-3.0003,-3.0017,-3.0085,-3.0114,-3.0069,-3.0074,-3.0264,-3.0266,-3.0269,-3.0279,0,0,0,0,0,0,-2.9664,-2.9686,-2.9712,-2.977,-2.9792,-2.9892,-2.9875,-2.9883,-2.9915,-2.9915,-2.9973,-2.9981,-3.0003,-3.0076,-3.0091,-3.0121,-3.0079,-3.0261,-3.0265,-3.0268,-3.0277,-3.0282,-3.0287,0,0,0,0,0,-2.9657,-2.971,-2.9713,-2.9731,-2.9826,-2.9894,-2.9906,-2.9931,-2.9918,-2.9945,-2.9976,-2.9979,-3.0108,-3.0083,-3.0099,-3.0132,-3.0259,-3.0264,-3.0268,-3.0274,-3.0281,-3.0287,0,0,0,0,0,0,-2.9653,-2.9718,-2.9722,-2.9795,-2.9839,-2.9896,-2.993,-2.9937,-2.9985,-2.9983,-3.0011,-3.0024,-3.0091,-3.0118,-3.0089,-3.0202,-3.0183,-3.019,-3.0182,-3.0189,-3.0194,-3.0186,-3.0084,0,0,0,0,0,-2.966,-2.971,-2.9764,-2.9823,-2.9845,-2.9884,-2.9914,-2.993,-2.9976,-2.9994,-3.0031,-3.0075,-3.0126,-3.0158,-3.0207,-3.028,-3.0293,-3.0311,-3.0316,-3.032,-3.0327,-3.0368,-3.0377,-3.0284,-3.0284,-3.0284,0,0,-2.9676,-2.9718,-2.9747,-2.9823,-2.9859,-2.991,-2.9899,-2.9953,-2.9991,-3.0002,-3.0069,-3.0097,-3.0148,-3.0219,-3.0252,-3.0244,-3.0355,-3.0325,-3.0328,-3.0333,-3.0374,-3.0382,-3.039,-3.0287,-3.0286,-3.0286,0,0,-2.9731,-2.9768,-2.9822,-2.9858,-2.9913,-2.9938,-2.9951,-3.0007,-3.0027,-3.0094,-3.0104,-3.0149,-3.0236,-3.0272,-3.0302,-3.0372,-3.0377,-3.0387,-3.0414,-3.0455,-3.0462,-3.0469,-3.0495,-3.0504,-3.0393,-3.0393,-3.0393,0,-2.9744,-2.9822,-2.9848,-2.9903,-2.9936,-2.9949,-3.0004,-3.0038,-3.0105,-3.0128,-3.0118,-3.0227,-3.0262,-3.0343,-3.036,-3.0383,-3.0399,-3.0381,-3.0459,-3.0466,-3.0473,-3.0498,-3.0508,-3.0394,-3.0394,-3.0394,-3.0394,0,-2.9836,-2.9889,-2.9926,-2.9993,-3.003,-3.0084,-3.0119,-3.0153,-3.0166,-3.0192,-3.0261,-3.0304,-3.0363,-3.0383,-3.0395,-3.0465,-3.0459,-3.0453,-3.0435,-3.0482,-3.0507,-3.0517,-3.0396,-3.0395,-3.0395,-3.0395,0,0,-2.9891,-2.9972,-2.9986,-3.0017,-3.0078,-3.012,-3.0175,-3.0233,-3.0263,-3.0309,-3.0356,-3.0429,-3.0425,-3.0459,-3.0475,-3.0511,-3.0565,-3.0502,-3.0503,-3.0513,-3.0647,-3.0652,-3.0663,-3.0568,-3.057,-3.0572,-3.0643,0,-2.9955,-3.0055,-3.008,-3.0165,-3.0216,-3.0229,-3.0277,-3.032,-3.0346,-3.0392,-3.0421,-3.0473,-3.0463,-3.0484,-3.0519,-3.0551,-3.0593,-3.0546,-3.0613,-3.0615,-3.0602,-3.0675,-3.068,-3.0745,-3.0653,-3.0654,-3.0656,0,-3.0043,-3.0092,-3.0183,-3.0239,-3.0261,-3.0304,-3.036,-3.0404,-3.0453,-3.047,-3.0508,-3.0521,-3.0579,-3.0557,-3.0637,-3.0605,-3.0633,-3.0653,-3.0656,-3.0665,-3.0639,-3.0687,-3.0766,-3.0777,-3.0671,-3.0669,-3.0668,0,-3.0077,-3.0165,-3.0231,-3.0257,-3.0324,-3.0354,-3.0383,-3.043,-3.0464,-3.0513,-3.0535,-3.059,-3.062,-3.0661,-3.0689,-3.067,-3.0767,-3.0747,-3.0783,-3.0783,-3.0804,-3.0803,-3.0891,-3.082,-3.082,-3.082,-3.082,0,-3.0146,-3.0201,-3.0248,-3.0288,-3.035,-3.0379,-3.0439,-3.0468,-3.0511,-3.0557,-3.0571,-3.0614,-3.0647,-3.0695,-3.0716,-3.078,-3.0793,-3.0809,-3.0814,-3.0809,-3.0807,-3.0829,-3.0825,-3.0823,-3.0822,-3.0821,-3.0821,0,-3.0194,-3.0228,-3.0301,-3.0359,-3.0374,-3.0418,-3.0467,-3.0507,-3.0534,-3.0592,-3.0608,-3.065,-3.0707,-3.0738,-3.0809,-3.0823,-3.0895,-3.0897,-3.0879,-3.0882,-3.0917,-3.0914,-3.1024,-3.1041,-3.0957,-3.0958,-3.0958,0,-3.0237,-3.028,-3.0343,-3.0376,-3.0406,-3.0458,-3.0493,-3.0522,-3.0558,-3.0618,-3.0651,-3.0708,-3.0757,-3.0847,-3.0883,-3.0938,-3.0943,-3.0977,-3.0951,-3.0944,-3.0945,-3.0943,-3.0948,-3.0982,-3.0983,-3.0984,-3.0984,0,-3.031,-3.0325,-3.0376,-3.0433,-3.0474,-3.052,-3.0565,-3.0591,-3.0628,-3.0668,-3.0727,-3.0764,-3.0837,-3.0895,-3.0953,-3.0982,-3.099,-3.0992,-3.1004,-3.0999,-3.0988,-3.0996,-3.0894,-3.099,-3.0989,-3.0989,-3.0988,-3.0988,-3.0358,-3.0398,-3.0449,-3.0505,-3.0542,-3.0585,-3.0626,-3.0658,-3.0708,-3.0771,-3.0785,-3.0847,-3.0896,-3.0974,-3.1005,-3.1054,-3.1048,-3.1064,-3.1068,-3.1072,-3.1075,-3.0979,-3.1065,-3.1064,-3.1064,-3.1064,-3.1064,0,-3.0434,-3.0467,-3.0519,-3.0582,-3.0627,-3.063,-3.0681,-3.0718,-3.0773,-3.0818,-3.0865,-3.0934,-3.099,-3.1031,-3.1088,-3.112,-3.1125,-3.1134,-3.1133,-3.114,-3.1077,-3.1062,-3.1129,-3.1129,-3.1129,-3.1129,-3.1129,-3.1129,-3.0478,-3.0545,-3.0566,-3.0652,-3.0685,-3.0748,-3.0776,-3.0816,-3.0852,-3.0928,-3.0975,-3.1002,-3.1045,-3.1106,-3.1158,-3.1169,-3.119,-3.1199,-3.121,-3.1151,-3.1144,-3.1137,-3.1123,-3.1203,-3.1203,-3.1269,-3.127,-3.127]}]]